Year,Month,Day,Hour,Minute,Value (Times are PST for windgust in km/hr)
2021,07,06,00,00,6.40
2021,07,06,00,01,6.40
2021,07,06,00,02,4.80
2021,07,06,00,03,6.40
2021,07,06,00,04,8.10
2021,07,06,00,05,8.10
2021,07,06,00,06,4.80
2021,07,06,00,07,6.40
2021,07,06,00,08,4.80
2021,07,06,00,09,4.80
2021,07,06,00,10,3.20
2021,07,06,00,11,3.20
2021,07,06,00,12,4.80
2021,07,06,00,13,6.40
2021,07,06,00,14,4.80
2021,07,06,00,15,4.80
2021,07,06,00,16,6.40
2021,07,06,00,17,6.40
2021,07,06,00,18,6.40
2021,07,06,00,19,4.80
2021,07,06,00,20,4.80
2021,07,06,00,21,4.80
2021,07,06,00,22,4.80
2021,07,06,00,23,6.40
2021,07,06,00,24,8.10
2021,07,06,00,25,6.40
2021,07,06,00,26,4.80
2021,07,06,00,27,4.80
2021,07,06,00,28,4.80
2021,07,06,00,29,4.80
2021,07,06,00,30,4.80
2021,07,06,00,31,4.80
2021,07,06,00,32,3.20
2021,07,06,00,33,4.80
2021,07,06,00,34,4.80
2021,07,06,00,35,4.80
2021,07,06,00,36,3.20
2021,07,06,00,37,3.20
2021,07,06,00,38,4.80
2021,07,06,00,39,3.20
2021,07,06,00,40,6.40
2021,07,06,00,41,6.40
2021,07,06,00,42,6.40
2021,07,06,00,43,4.80
2021,07,06,00,44,4.80
2021,07,06,00,45,8.10
2021,07,06,00,46,8.10
2021,07,06,00,47,6.40
2021,07,06,00,48,4.80
2021,07,06,00,49,4.80
2021,07,06,00,50,4.80
2021,07,06,00,51,3.20
2021,07,06,00,52,3.20
2021,07,06,00,53,3.20
2021,07,06,00,54,3.20
2021,07,06,00,55,3.20
2021,07,06,00,56,6.40
2021,07,06,00,57,4.80
2021,07,06,00,58,3.20
2021,07,06,00,59,3.20
2021,07,06,01,00,3.20
2021,07,06,01,01,1.60
2021,07,06,01,02,1.60
2021,07,06,01,03,4.80
2021,07,06,01,04,3.20
2021,07,06,01,05,3.20
2021,07,06,01,06,1.60
2021,07,06,01,10,4.80
2021,07,06,01,11,3.20
2021,07,06,01,12,1.60
2021,07,06,01,17,1.60
2021,07,06,01,24,3.20
2021,07,06,01,25,3.20
2021,07,06,01,26,1.60
2021,07,06,01,27,3.20
2021,07,06,01,28,3.20
2021,07,06,01,29,4.80
2021,07,06,01,30,3.20
2021,07,06,01,31,3.20
2021,07,06,01,32,3.20
2021,07,06,01,33,3.20
2021,07,06,01,34,3.20
2021,07,06,01,35,3.20
2021,07,06,01,36,3.20
2021,07,06,01,37,3.20
2021,07,06,01,38,1.60
2021,07,06,01,50,1.60
2021,07,06,01,51,3.20
2021,07,06,01,52,3.20
2021,07,06,01,53,4.80
2021,07,06,01,54,3.20
2021,07,06,01,55,3.20
2021,07,06,01,56,1.60
2021,07,06,01,57,1.60
2021,07,06,01,58,4.80
2021,07,06,01,59,4.80
2021,07,06,02,00,4.80
2021,07,06,02,01,3.20
2021,07,06,02,02,1.60
2021,07,06,02,03,3.20
2021,07,06,02,04,4.80
2021,07,06,02,05,4.80
2021,07,06,02,06,4.80
2021,07,06,02,07,3.20
2021,07,06,02,08,3.20
2021,07,06,02,09,3.20
2021,07,06,02,10,3.20
2021,07,06,02,11,4.80
2021,07,06,02,12,4.80
2021,07,06,02,13,1.60
2021,07,06,02,14,1.60
2021,07,06,02,15,3.20
2021,07,06,02,16,1.60
2021,07,06,02,18,3.20
2021,07,06,02,19,3.20
2021,07,06,02,20,3.20
2021,07,06,02,21,3.20
2021,07,06,02,22,1.60
2021,07,06,02,23,3.20
2021,07,06,02,24,3.20
2021,07,06,02,25,3.20
2021,07,06,02,26,3.20
2021,07,06,02,27,1.60
2021,07,06,02,35,1.60
2021,07,06,02,37,3.20
2021,07,06,02,38,1.60
2021,07,06,03,27,1.60
2021,07,06,03,28,1.60
2021,07,06,03,29,3.20
2021,07,06,03,30,3.20
2021,07,06,03,31,1.60
2021,07,06,03,32,1.60
2021,07,06,03,33,1.60
2021,07,06,03,34,1.60
2021,07,06,03,35,3.20
2021,07,06,03,38,1.60
2021,07,06,03,39,1.60
2021,07,06,03,40,1.60
2021,07,06,03,41,1.60
2021,07,06,03,42,1.60
2021,07,06,03,43,1.60
2021,07,06,03,46,1.60
2021,07,06,05,01,1.60
2021,07,06,05,24,1.60
2021,07,06,05,25,1.60
2021,07,06,05,26,1.60
2021,07,06,05,27,1.60
2021,07,06,05,39,1.60
2021,07,06,06,08,1.60
2021,07,06,06,12,1.60
2021,07,06,06,13,3.20
2021,07,06,06,14,3.20
2021,07,06,06,15,3.20
2021,07,06,06,16,3.20
2021,07,06,06,17,3.20
2021,07,06,06,18,3.20
2021,07,06,06,19,3.20
2021,07,06,06,20,3.20
2021,07,06,06,21,3.20
2021,07,06,06,22,1.60
2021,07,06,06,23,3.20
2021,07,06,06,24,4.80
2021,07,06,06,25,1.60
2021,07,06,06,26,3.20
2021,07,06,06,27,3.20
2021,07,06,06,28,3.20
2021,07,06,06,29,3.20
2021,07,06,06,30,3.20
2021,07,06,06,31,1.60
2021,07,06,06,32,1.60
2021,07,06,06,33,4.80
2021,07,06,06,34,4.80
2021,07,06,06,35,1.60
2021,07,06,06,36,3.20
2021,07,06,06,37,1.60
2021,07,06,06,38,1.60
2021,07,06,06,39,3.20
2021,07,06,06,40,1.60
2021,07,06,06,41,1.60
2021,07,06,06,42,3.20
2021,07,06,06,43,3.20
2021,07,06,06,44,1.60
2021,07,06,06,45,3.20
2021,07,06,06,46,3.20
2021,07,06,06,47,3.20
2021,07,06,06,48,3.20
2021,07,06,06,49,3.20
2021,07,06,06,50,4.80
2021,07,06,06,51,4.80
2021,07,06,06,52,4.80
2021,07,06,06,53,3.20
2021,07,06,06,54,4.80
2021,07,06,06,55,3.20
2021,07,06,06,56,3.20
2021,07,06,06,57,1.60
2021,07,06,06,58,1.60
2021,07,06,06,59,1.60
2021,07,06,07,00,1.60
2021,07,06,07,01,1.60
2021,07,06,07,02,1.60
2021,07,06,07,03,3.20
2021,07,06,07,04,1.60
2021,07,06,07,05,4.80
2021,07,06,07,06,3.20
2021,07,06,07,07,3.20
2021,07,06,07,08,1.60
2021,07,06,07,09,1.60
2021,07,06,07,10,1.60
2021,07,06,07,11,1.60
2021,07,06,07,12,3.20
2021,07,06,07,13,1.60
2021,07,06,07,14,1.60
2021,07,06,07,18,1.60
2021,07,06,07,19,1.60
2021,07,06,07,20,3.20
2021,07,06,07,21,1.60
2021,07,06,07,22,3.20
2021,07,06,07,23,3.20
2021,07,06,07,24,3.20
2021,07,06,07,25,3.20
2021,07,06,07,26,3.20
2021,07,06,07,27,3.20
2021,07,06,07,28,3.20
2021,07,06,07,29,3.20
2021,07,06,07,30,1.60
2021,07,06,07,31,3.20
2021,07,06,07,32,4.80
2021,07,06,07,33,3.20
2021,07,06,07,34,1.60
2021,07,06,07,35,4.80
2021,07,06,07,36,6.40
2021,07,06,07,37,6.40
2021,07,06,07,38,8.10
2021,07,06,07,39,8.10
2021,07,06,07,40,4.80
2021,07,06,07,41,6.40
2021,07,06,07,42,4.80
2021,07,06,07,43,3.20
2021,07,06,07,44,4.80
2021,07,06,07,45,4.80
2021,07,06,07,46,4.80
2021,07,06,07,47,8.10
2021,07,06,07,48,6.40
2021,07,06,07,49,4.80
2021,07,06,07,50,6.40
2021,07,06,07,51,6.40
2021,07,06,07,52,6.40
2021,07,06,07,53,8.10
2021,07,06,07,54,4.80
2021,07,06,07,55,8.10
2021,07,06,07,56,6.40
2021,07,06,07,57,6.40
2021,07,06,07,58,6.40
2021,07,06,07,59,4.80
2021,07,06,08,00,3.20
2021,07,06,08,01,3.20
2021,07,06,08,02,6.40
2021,07,06,08,03,6.40
2021,07,06,08,04,4.80
2021,07,06,08,05,4.80
2021,07,06,08,06,4.80
2021,07,06,08,07,4.80
2021,07,06,08,08,8.10
2021,07,06,08,09,4.80
2021,07,06,08,10,6.40
2021,07,06,08,11,6.40
2021,07,06,08,12,6.40
2021,07,06,08,13,6.40
2021,07,06,08,14,4.80
2021,07,06,08,15,3.20
2021,07,06,08,16,4.80
2021,07,06,08,17,4.80
2021,07,06,08,18,3.20
2021,07,06,08,19,3.20
2021,07,06,08,20,4.80
2021,07,06,08,21,8.10
2021,07,06,08,22,6.40
2021,07,06,08,23,8.10
2021,07,06,08,24,6.40
2021,07,06,08,25,4.80
2021,07,06,08,26,6.40
2021,07,06,08,27,6.40
2021,07,06,08,28,4.80
2021,07,06,08,29,6.40
2021,07,06,08,30,4.80
2021,07,06,08,31,6.40
2021,07,06,08,32,6.40
2021,07,06,08,33,6.40
2021,07,06,08,34,6.40
2021,07,06,08,35,8.10
2021,07,06,08,36,4.80
2021,07,06,08,37,8.10
2021,07,06,08,38,8.10
2021,07,06,08,39,4.80
2021,07,06,08,40,3.20
2021,07,06,08,41,4.80
2021,07,06,08,42,4.80
2021,07,06,08,43,4.80
2021,07,06,08,44,4.80
2021,07,06,08,45,6.40
2021,07,06,08,46,4.80
2021,07,06,08,47,3.20
2021,07,06,08,48,4.80
2021,07,06,08,49,6.40
2021,07,06,08,50,4.80
2021,07,06,08,51,4.80
2021,07,06,08,52,6.40
2021,07,06,08,53,6.40
2021,07,06,08,54,6.40
2021,07,06,08,55,8.10
2021,07,06,08,56,8.10
2021,07,06,08,57,6.40
2021,07,06,08,58,8.10
2021,07,06,08,59,6.40
2021,07,06,09,00,6.40
2021,07,06,09,01,8.10
2021,07,06,09,02,9.60
2021,07,06,09,03,8.10
2021,07,06,09,04,8.10
2021,07,06,09,05,8.10
2021,07,06,09,06,8.10
2021,07,06,09,07,6.40
2021,07,06,09,08,8.10
2021,07,06,09,09,4.80
2021,07,06,09,10,6.40
2021,07,06,09,11,9.60
2021,07,06,09,12,8.10
2021,07,06,09,13,8.10
2021,07,06,09,14,9.60
2021,07,06,09,15,9.60
2021,07,06,09,16,8.10
2021,07,06,09,17,4.80
2021,07,06,09,18,6.40
2021,07,06,09,19,6.40
2021,07,06,09,20,6.40
2021,07,06,09,21,9.60
2021,07,06,09,22,8.10
2021,07,06,09,23,8.10
2021,07,06,09,24,8.10
2021,07,06,09,25,9.60
2021,07,06,09,26,6.40
2021,07,06,09,27,8.10
2021,07,06,09,28,8.10
2021,07,06,09,29,9.60
2021,07,06,09,30,9.60
2021,07,06,09,31,8.10
2021,07,06,09,32,4.80
2021,07,06,09,33,6.40
2021,07,06,09,34,6.40
2021,07,06,09,35,9.60
2021,07,06,09,36,6.40
2021,07,06,09,37,4.80
2021,07,06,09,38,4.80
2021,07,06,09,39,6.40
2021,07,06,09,40,8.10
2021,07,06,09,41,6.40
2021,07,06,09,42,6.40
2021,07,06,09,43,6.40
2021,07,06,09,44,6.40
2021,07,06,09,45,8.10
2021,07,06,09,46,4.80
2021,07,06,09,47,4.80
2021,07,06,09,48,8.10
2021,07,06,09,49,9.60
2021,07,06,09,50,8.10
2021,07,06,09,51,9.60
2021,07,06,09,52,8.10
2021,07,06,09,53,8.10
2021,07,06,09,54,6.40
2021,07,06,09,55,8.10
2021,07,06,09,56,9.60
2021,07,06,09,57,8.10
2021,07,06,09,58,11.30
2021,07,06,09,59,11.30
2021,07,06,10,00,8.10
2021,07,06,10,01,9.60
2021,07,06,10,02,11.30
2021,07,06,10,03,11.30
2021,07,06,10,04,11.30
2021,07,06,10,05,9.60
2021,07,06,10,06,9.60
2021,07,06,10,07,8.10
2021,07,06,10,08,6.40
2021,07,06,10,09,8.10
2021,07,06,10,10,6.40
2021,07,06,10,11,6.40
2021,07,06,10,12,8.10
2021,07,06,10,13,8.10
2021,07,06,10,14,8.10
2021,07,06,10,15,8.10
2021,07,06,10,16,8.10
2021,07,06,10,17,8.10
2021,07,06,10,18,8.10
2021,07,06,10,19,9.60
2021,07,06,10,20,9.60
2021,07,06,10,21,9.60
2021,07,06,10,22,8.10
2021,07,06,10,23,8.10
2021,07,06,10,24,11.30
2021,07,06,10,25,9.60
2021,07,06,10,26,9.60
2021,07,06,10,27,9.60
2021,07,06,10,28,8.10
2021,07,06,10,29,9.60
2021,07,06,10,30,6.40
2021,07,06,10,31,8.10
2021,07,06,10,32,4.80
2021,07,06,10,33,8.10
2021,07,06,10,34,9.60
2021,07,06,10,35,8.10
2021,07,06,10,36,11.30
2021,07,06,10,37,9.60
2021,07,06,10,38,8.10
2021,07,06,10,39,3.20
2021,07,06,10,40,4.80
2021,07,06,10,41,6.40
2021,07,06,10,42,6.40
2021,07,06,10,43,6.40
2021,07,06,10,44,4.80
2021,07,06,10,45,8.10
2021,07,06,10,46,8.10
2021,07,06,10,47,4.80
2021,07,06,10,48,8.10
2021,07,06,10,49,8.10
2021,07,06,10,50,9.60
2021,07,06,10,51,4.80
2021,07,06,10,52,9.60
2021,07,06,10,53,6.40
2021,07,06,10,54,6.40
2021,07,06,10,55,8.10
2021,07,06,10,56,8.10
2021,07,06,10,57,4.80
2021,07,06,10,58,4.80
2021,07,06,10,59,11.30
2021,07,06,11,00,9.60
2021,07,06,11,01,11.30
2021,07,06,11,02,8.10
2021,07,06,11,03,3.20
2021,07,06,11,04,8.10
2021,07,06,11,05,8.10
2021,07,06,11,06,8.10
2021,07,06,11,07,12.90
2021,07,06,11,08,9.60
2021,07,06,11,09,8.10
2021,07,06,11,10,6.40
2021,07,06,11,11,11.30
2021,07,06,11,12,8.10
2021,07,06,11,13,8.10
2021,07,06,11,14,8.10
2021,07,06,11,15,8.10
2021,07,06,11,16,8.10
2021,07,06,11,17,6.40
2021,07,06,11,18,4.80
2021,07,06,11,19,9.60
2021,07,06,11,20,6.40
2021,07,06,11,21,6.40
2021,07,06,11,22,8.10
2021,07,06,11,23,6.40
2021,07,06,11,24,8.10
2021,07,06,11,25,4.80
2021,07,06,11,26,8.10
2021,07,06,11,27,9.60
2021,07,06,11,28,8.10
2021,07,06,11,29,8.10
2021,07,06,11,30,8.10
2021,07,06,11,31,8.10
2021,07,06,11,32,8.10
2021,07,06,11,33,1.60
2021,07,06,11,34,6.40
2021,07,06,11,35,8.10
2021,07,06,11,36,3.20
2021,07,06,11,37,6.40
2021,07,06,11,38,9.60
2021,07,06,11,39,9.60
2021,07,06,11,40,3.20
2021,07,06,11,41,8.10
2021,07,06,11,42,8.10
2021,07,06,11,43,9.60
2021,07,06,11,44,9.60
2021,07,06,11,45,8.10
2021,07,06,11,46,9.60
2021,07,06,11,47,11.30
2021,07,06,11,48,9.60
2021,07,06,11,49,8.10
2021,07,06,11,50,8.10
2021,07,06,11,51,11.30
2021,07,06,11,52,11.30
2021,07,06,11,53,12.90
2021,07,06,11,54,12.90
2021,07,06,11,55,4.80
2021,07,06,11,56,8.10
2021,07,06,11,57,8.10
2021,07,06,11,58,8.10
2021,07,06,11,59,11.30
2021,07,06,12,00,9.60
2021,07,06,12,01,12.90
2021,07,06,12,02,6.40
2021,07,06,12,03,8.10
2021,07,06,12,04,8.10
2021,07,06,12,05,14.50
2021,07,06,12,06,11.30
2021,07,06,12,07,9.60
2021,07,06,12,08,11.30
2021,07,06,12,09,6.40
2021,07,06,12,10,14.50
2021,07,06,12,11,12.90
2021,07,06,12,12,14.50
2021,07,06,12,13,14.50
2021,07,06,12,14,16.10
2021,07,06,12,15,17.70
2021,07,06,12,16,14.50
2021,07,06,12,17,14.50
2021,07,06,12,18,9.60
2021,07,06,12,19,12.90
2021,07,06,12,20,11.30
2021,07,06,12,21,11.30
2021,07,06,12,22,11.30
2021,07,06,12,23,11.30
2021,07,06,12,24,11.30
2021,07,06,12,25,9.60
2021,07,06,12,26,8.10
2021,07,06,12,27,11.30
2021,07,06,12,28,9.60
2021,07,06,12,29,12.90
2021,07,06,12,30,11.30
2021,07,06,12,31,6.40
2021,07,06,12,32,8.10
2021,07,06,12,33,11.30
2021,07,06,12,34,11.30
2021,07,06,12,35,11.30
2021,07,06,12,36,11.30
2021,07,06,12,37,11.30
2021,07,06,12,38,9.60
2021,07,06,12,39,9.60
2021,07,06,12,40,11.30
2021,07,06,12,41,12.90
2021,07,06,12,42,11.30
2021,07,06,12,43,12.90
2021,07,06,12,44,12.90
2021,07,06,12,45,11.30
2021,07,06,12,46,9.60
2021,07,06,12,47,11.30
2021,07,06,12,48,11.30
2021,07,06,12,49,9.60
2021,07,06,12,50,6.40
2021,07,06,12,51,9.60
2021,07,06,12,52,8.10
2021,07,06,12,53,11.30
2021,07,06,12,54,14.50
2021,07,06,12,55,12.90
2021,07,06,12,56,8.10
2021,07,06,12,57,11.30
2021,07,06,12,58,11.30
2021,07,06,12,59,8.10
2021,07,06,13,00,11.30
2021,07,06,13,01,12.90
2021,07,06,13,02,11.30
2021,07,06,13,03,11.30
2021,07,06,13,04,8.10
2021,07,06,13,05,8.10
2021,07,06,13,06,8.10
2021,07,06,13,07,11.30
2021,07,06,13,08,11.30
2021,07,06,13,09,12.90
2021,07,06,13,10,6.40
2021,07,06,13,11,8.10
2021,07,06,13,12,11.30
2021,07,06,13,13,11.30
2021,07,06,13,14,8.10
2021,07,06,13,15,4.80
2021,07,06,13,16,8.10
2021,07,06,13,17,12.90
2021,07,06,13,18,12.90
2021,07,06,13,19,8.10
2021,07,06,13,20,12.90
2021,07,06,13,21,11.30
2021,07,06,13,22,14.50
2021,07,06,13,23,12.90
2021,07,06,13,24,11.30
2021,07,06,13,25,12.90
2021,07,06,13,26,11.30
2021,07,06,13,27,12.90
2021,07,06,13,28,11.30
2021,07,06,13,29,11.30
2021,07,06,13,30,14.50
2021,07,06,13,31,11.30
2021,07,06,13,32,11.30
2021,07,06,13,33,12.90
2021,07,06,13,34,11.30
2021,07,06,13,35,11.30
2021,07,06,13,36,9.60
2021,07,06,13,37,11.30
2021,07,06,13,38,12.90
2021,07,06,13,39,9.60
2021,07,06,13,40,11.30
2021,07,06,13,41,8.10
2021,07,06,13,42,6.40
2021,07,06,13,43,12.90
2021,07,06,13,44,14.50
2021,07,06,13,45,12.90
2021,07,06,13,46,12.90
2021,07,06,13,47,11.30
2021,07,06,13,48,11.30
2021,07,06,13,49,9.60
2021,07,06,13,50,11.30
2021,07,06,13,51,11.30
2021,07,06,13,52,8.10
2021,07,06,13,53,9.60
2021,07,06,13,54,9.60
2021,07,06,13,55,11.30
2021,07,06,13,56,9.60
2021,07,06,13,57,11.30
2021,07,06,13,58,12.90
2021,07,06,13,59,12.90
2021,07,06,14,00,11.30
2021,07,06,14,01,11.30
2021,07,06,14,02,9.60
2021,07,06,14,03,9.60
2021,07,06,14,04,11.30
2021,07,06,14,05,12.90
2021,07,06,14,06,14.50
2021,07,06,14,07,12.90
2021,07,06,14,08,14.50
2021,07,06,14,09,14.50
2021,07,06,14,10,12.90
2021,07,06,14,11,12.90
2021,07,06,14,12,14.50
2021,07,06,14,13,12.90
2021,07,06,14,14,14.50
2021,07,06,14,15,17.70
2021,07,06,14,16,11.30
2021,07,06,14,17,16.10
2021,07,06,14,18,11.30
2021,07,06,14,19,14.50
2021,07,06,14,20,12.90
2021,07,06,14,21,11.30
2021,07,06,14,22,11.30
2021,07,06,14,23,11.30
2021,07,06,14,24,11.30
2021,07,06,14,25,11.30
2021,07,06,14,26,11.30
2021,07,06,14,27,16.10
2021,07,06,14,28,16.10
2021,07,06,14,29,14.50
2021,07,06,14,30,11.30
2021,07,06,14,31,12.90
2021,07,06,14,32,11.30
2021,07,06,14,33,12.90
2021,07,06,14,34,11.30
2021,07,06,14,35,11.30
2021,07,06,14,36,12.90
2021,07,06,14,37,11.30
2021,07,06,14,38,12.90
2021,07,06,14,39,14.50
2021,07,06,14,40,16.10
2021,07,06,14,41,11.30
2021,07,06,14,42,8.10
2021,07,06,14,43,8.10
2021,07,06,14,44,11.30
2021,07,06,14,45,12.90
2021,07,06,14,46,11.30
2021,07,06,14,47,12.90
2021,07,06,14,48,11.30
2021,07,06,14,49,11.30
2021,07,06,14,50,11.30
2021,07,06,14,51,11.30
2021,07,06,14,52,14.50
2021,07,06,14,53,17.70
2021,07,06,14,54,14.50
2021,07,06,14,55,14.50
2021,07,06,14,56,14.50
2021,07,06,14,57,12.90
2021,07,06,14,58,14.50
2021,07,06,14,59,12.90
2021,07,06,15,00,14.50
2021,07,06,15,01,12.90
2021,07,06,15,02,11.30
2021,07,06,15,03,12.90
2021,07,06,15,04,14.50
2021,07,06,15,05,12.90
2021,07,06,15,06,12.90
2021,07,06,15,07,12.90
2021,07,06,15,08,12.90
2021,07,06,15,09,14.50
2021,07,06,15,10,11.30
2021,07,06,15,11,11.30
2021,07,06,15,12,12.90
2021,07,06,15,13,12.90
2021,07,06,15,14,11.30
2021,07,06,15,15,8.10
2021,07,06,15,16,9.60
2021,07,06,15,17,16.10
2021,07,06,15,18,14.50
2021,07,06,15,19,11.30
2021,07,06,15,20,14.50
2021,07,06,15,21,14.50
2021,07,06,15,22,6.40
2021,07,06,15,23,8.10
2021,07,06,15,24,14.50
2021,07,06,15,25,11.30
2021,07,06,15,26,11.30
2021,07,06,15,27,11.30
2021,07,06,15,28,9.60
2021,07,06,15,29,6.40
2021,07,06,15,30,8.10
2021,07,06,15,31,14.50
2021,07,06,15,32,14.50
2021,07,06,15,33,12.90
2021,07,06,15,34,8.10
2021,07,06,15,35,12.90
2021,07,06,15,36,11.30
2021,07,06,15,37,9.60
2021,07,06,15,38,9.60
2021,07,06,15,39,11.30
2021,07,06,15,40,6.40
2021,07,06,15,41,8.10
2021,07,06,15,42,8.10
2021,07,06,15,43,8.10
2021,07,06,15,44,8.10
2021,07,06,15,45,12.90
2021,07,06,15,46,12.90
2021,07,06,15,47,12.90
2021,07,06,15,48,12.90
2021,07,06,15,49,12.90
2021,07,06,15,50,11.30
2021,07,06,15,51,11.30
2021,07,06,15,52,12.90
2021,07,06,15,53,14.50
2021,07,06,15,54,14.50
2021,07,06,15,55,14.50
2021,07,06,15,56,11.30
2021,07,06,15,57,9.60
2021,07,06,15,58,8.10
2021,07,06,15,59,14.50
2021,07,06,16,00,12.90
2021,07,06,16,01,11.30
2021,07,06,16,02,14.50
2021,07,06,16,03,11.30
2021,07,06,16,04,8.10
2021,07,06,16,05,9.60
2021,07,06,16,06,9.60
2021,07,06,16,07,6.40
2021,07,06,16,08,8.10
2021,07,06,16,09,8.10
2021,07,06,16,10,11.30
2021,07,06,16,11,11.30
2021,07,06,16,12,9.60
2021,07,06,16,13,8.10
2021,07,06,16,14,6.40
2021,07,06,16,15,8.10
2021,07,06,16,16,9.60
2021,07,06,16,17,9.60
2021,07,06,16,18,11.30
2021,07,06,16,19,11.30
2021,07,06,16,20,8.10
2021,07,06,16,21,6.40
2021,07,06,16,22,4.80
2021,07,06,16,23,4.80
2021,07,06,16,24,9.60
2021,07,06,16,25,6.40
2021,07,06,16,26,6.40
2021,07,06,16,27,8.10
2021,07,06,16,28,9.60
2021,07,06,16,29,12.90
2021,07,06,16,30,11.30
2021,07,06,16,31,11.30
2021,07,06,16,32,8.10
2021,07,06,16,33,11.30
2021,07,06,16,34,8.10
2021,07,06,16,35,4.80
2021,07,06,16,36,4.80
2021,07,06,16,37,4.80
2021,07,06,16,38,4.80
2021,07,06,16,39,6.40
2021,07,06,16,40,8.10
2021,07,06,16,41,11.30
2021,07,06,16,42,11.30
2021,07,06,16,43,11.30
2021,07,06,16,44,8.10
2021,07,06,16,45,8.10
2021,07,06,16,46,8.10
2021,07,06,16,47,11.30
2021,07,06,16,48,11.30
2021,07,06,16,49,9.60
2021,07,06,16,50,11.30
2021,07,06,16,51,8.10
2021,07,06,16,52,9.60
2021,07,06,16,53,9.60
2021,07,06,16,54,9.60
2021,07,06,16,55,6.40
2021,07,06,16,56,9.60
2021,07,06,16,57,9.60
2021,07,06,16,58,9.60
2021,07,06,16,59,8.10
2021,07,06,17,00,11.30
2021,07,06,17,01,11.30
2021,07,06,17,02,11.30
2021,07,06,17,03,11.30
2021,07,06,17,04,6.40
2021,07,06,17,05,9.60
2021,07,06,17,06,8.10
2021,07,06,17,07,9.60
2021,07,06,17,08,9.60
2021,07,06,17,09,8.10
2021,07,06,17,10,8.10
2021,07,06,17,11,9.60
2021,07,06,17,12,8.10
2021,07,06,17,13,9.60
2021,07,06,17,14,9.60
2021,07,06,17,15,9.60
2021,07,06,17,16,9.60
2021,07,06,17,17,9.60
2021,07,06,17,18,9.60
2021,07,06,17,19,8.10
2021,07,06,17,20,6.40
2021,07,06,17,21,6.40
2021,07,06,17,22,6.40
2021,07,06,17,23,6.40
2021,07,06,17,24,6.40
2021,07,06,17,25,11.30
2021,07,06,17,26,6.40
2021,07,06,17,27,8.10
2021,07,06,17,28,8.10
2021,07,06,17,29,6.40
2021,07,06,17,30,11.30
2021,07,06,17,31,9.60
2021,07,06,17,32,9.60
2021,07,06,17,33,8.10
2021,07,06,17,34,9.60
2021,07,06,17,35,9.60
2021,07,06,17,36,8.10
2021,07,06,17,37,9.60
2021,07,06,17,38,8.10
2021,07,06,17,39,11.30
2021,07,06,17,40,11.30
2021,07,06,17,41,12.90
2021,07,06,17,42,12.90
2021,07,06,17,43,8.10
2021,07,06,17,44,14.50
2021,07,06,17,45,8.10
2021,07,06,17,46,8.10
2021,07,06,17,47,8.10
2021,07,06,17,48,11.30
2021,07,06,17,49,9.60
2021,07,06,17,50,11.30
2021,07,06,17,51,11.30
2021,07,06,17,52,12.90
2021,07,06,17,53,9.60
2021,07,06,17,54,9.60
2021,07,06,17,55,8.10
2021,07,06,17,56,11.30
2021,07,06,17,57,8.10
2021,07,06,17,58,8.10
2021,07,06,17,59,9.60
2021,07,06,18,00,8.10
2021,07,06,18,01,9.60
2021,07,06,18,02,11.30
2021,07,06,18,03,11.30
2021,07,06,18,04,8.10
2021,07,06,18,05,11.30
2021,07,06,18,06,11.30
2021,07,06,18,07,8.10
2021,07,06,18,08,9.60
2021,07,06,18,09,8.10
2021,07,06,18,10,9.60
2021,07,06,18,11,11.30
2021,07,06,18,12,9.60
2021,07,06,18,13,11.30
2021,07,06,18,14,9.60
2021,07,06,18,15,6.40
2021,07,06,18,16,6.40
2021,07,06,18,17,9.60
2021,07,06,18,18,8.10
2021,07,06,18,19,9.60
2021,07,06,18,20,6.40
2021,07,06,18,21,8.10
2021,07,06,18,22,4.80
2021,07,06,18,23,8.10
2021,07,06,18,24,8.10
2021,07,06,18,25,9.60
2021,07,06,18,26,11.30
2021,07,06,18,27,9.60
2021,07,06,18,28,11.30
2021,07,06,18,29,4.80
2021,07,06,18,30,12.90
2021,07,06,18,31,12.90
2021,07,06,18,32,12.90
2021,07,06,18,33,6.40
2021,07,06,18,34,4.80
2021,07,06,18,35,11.30
2021,07,06,18,36,4.80
2021,07,06,18,37,3.20
2021,07,06,18,38,8.10
2021,07,06,18,39,11.30
2021,07,06,18,40,11.30
2021,07,06,18,41,9.60
2021,07,06,18,42,8.10
2021,07,06,18,43,9.60
2021,07,06,18,44,11.30
2021,07,06,18,45,8.10
2021,07,06,18,46,9.60
2021,07,06,18,47,8.10
2021,07,06,18,48,11.30
2021,07,06,18,49,8.10
2021,07,06,18,50,6.40
2021,07,06,18,51,4.80
2021,07,06,18,52,1.60
2021,07,06,18,53,1.60
2021,07,06,18,54,11.30
2021,07,06,18,55,11.30
2021,07,06,18,56,11.30
2021,07,06,18,57,11.30
2021,07,06,18,58,8.10
2021,07,06,18,59,4.80
2021,07,06,19,00,8.10
2021,07,06,19,01,9.60
2021,07,06,19,02,6.40
2021,07,06,19,03,6.40
2021,07,06,19,04,4.80
2021,07,06,19,05,4.80
2021,07,06,19,06,8.10
2021,07,06,19,07,4.80
2021,07,06,19,08,8.10
2021,07,06,19,09,4.80
2021,07,06,19,10,4.80
2021,07,06,19,11,3.20
2021,07,06,19,12,3.20
2021,07,06,19,13,1.60
2021,07,06,19,14,4.80
2021,07,06,19,15,8.10
2021,07,06,19,16,3.20
2021,07,06,19,17,1.60
2021,07,06,19,19,1.60
2021,07,06,19,21,4.80
2021,07,06,19,22,4.80
2021,07,06,19,23,6.40
2021,07,06,19,24,6.40
2021,07,06,19,25,6.40
2021,07,06,19,26,6.40
2021,07,06,19,27,8.10
2021,07,06,19,28,8.10
2021,07,06,19,29,6.40
2021,07,06,19,30,8.10
2021,07,06,19,31,6.40
2021,07,06,19,32,6.40
2021,07,06,19,33,8.10
2021,07,06,19,34,6.40
2021,07,06,19,35,6.40
2021,07,06,19,36,6.40
2021,07,06,19,37,8.10
2021,07,06,19,38,8.10
2021,07,06,19,39,6.40
2021,07,06,19,40,8.10
2021,07,06,19,41,6.40
2021,07,06,19,42,4.80
2021,07,06,19,43,6.40
2021,07,06,19,44,6.40
2021,07,06,19,45,6.40
2021,07,06,19,46,4.80
2021,07,06,19,47,8.10
2021,07,06,19,48,6.40
2021,07,06,19,49,6.40
2021,07,06,19,50,4.80
2021,07,06,19,51,3.20
2021,07,06,19,52,3.20
2021,07,06,19,53,4.80
2021,07,06,19,54,6.40
2021,07,06,19,55,1.60
2021,07,06,19,56,6.40
2021,07,06,19,57,4.80
2021,07,06,19,58,6.40
2021,07,06,19,59,6.40
2021,07,06,20,00,4.80
2021,07,06,20,01,6.40
2021,07,06,20,02,6.40
2021,07,06,20,03,8.10
2021,07,06,20,04,8.10
2021,07,06,20,05,8.10
2021,07,06,20,06,4.80
2021,07,06,20,07,4.80
2021,07,06,20,08,6.40
2021,07,06,20,09,8.10
2021,07,06,20,10,8.10
2021,07,06,20,11,4.80
2021,07,06,20,12,4.80
2021,07,06,20,13,8.10
2021,07,06,20,14,6.40
2021,07,06,20,15,6.40
2021,07,06,20,16,8.10
2021,07,06,20,17,4.80
2021,07,06,20,18,6.40
2021,07,06,20,19,4.80
2021,07,06,20,20,4.80
2021,07,06,20,21,4.80
2021,07,06,20,22,1.60
2021,07,06,20,23,6.40
2021,07,06,20,24,4.80
2021,07,06,20,25,4.80
2021,07,06,20,26,4.80
2021,07,06,20,27,6.40
2021,07,06,20,28,6.40
2021,07,06,20,29,4.80
2021,07,06,20,30,3.20
2021,07,06,20,31,4.80
2021,07,06,20,32,6.40
2021,07,06,20,33,3.20
2021,07,06,20,34,4.80
2021,07,06,20,35,4.80
2021,07,06,20,36,4.80
2021,07,06,20,37,3.20
2021,07,06,20,38,3.20
2021,07,06,20,39,4.80
2021,07,06,20,40,4.80
2021,07,06,20,41,4.80
2021,07,06,20,42,3.20
2021,07,06,20,43,3.20
2021,07,06,20,44,4.80
2021,07,06,20,45,4.80
2021,07,06,20,46,4.80
2021,07,06,20,47,3.20
2021,07,06,20,48,4.80
2021,07,06,20,49,1.60
2021,07,06,20,50,3.20
2021,07,06,20,51,3.20
2021,07,06,20,52,3.20
2021,07,06,20,53,3.20
2021,07,06,20,54,4.80
2021,07,06,20,55,4.80
2021,07,06,20,56,4.80
2021,07,06,20,57,3.20
2021,07,06,20,58,3.20
2021,07,06,20,59,3.20
2021,07,06,21,00,3.20
2021,07,06,21,01,1.60
2021,07,06,21,02,3.20
2021,07,06,21,03,3.20
2021,07,06,21,04,3.20
2021,07,06,21,05,3.20
2021,07,06,21,06,3.20
2021,07,06,21,07,1.60
2021,07,06,21,08,1.60
2021,07,06,21,10,1.60
2021,07,06,21,13,1.60
2021,07,06,21,14,1.60
2021,07,06,21,15,1.60
2021,07,06,21,16,3.20
2021,07,06,21,17,3.20
2021,07,06,21,18,3.20
2021,07,06,21,19,3.20
2021,07,06,21,20,3.20
2021,07,06,21,21,1.60
2021,07,06,21,26,1.60
2021,07,06,21,27,1.60
2021,07,06,21,28,3.20
2021,07,06,21,29,1.60
2021,07,06,21,30,1.60
2021,07,06,21,31,3.20
2021,07,06,21,32,3.20
2021,07,06,21,33,1.60
2021,07,06,21,36,1.60
2021,07,06,21,37,3.20
2021,07,06,21,38,3.20
2021,07,06,21,39,3.20
2021,07,06,21,40,3.20
2021,07,06,21,45,1.60
2021,07,06,21,46,1.60
2021,07,06,22,01,1.60
2021,07,06,22,23,1.60
2021,07,06,22,24,1.60
2021,07,06,22,32,1.60
2021,07,06,22,33,1.60
2021,07,06,22,36,1.60
2021,07,06,22,45,1.60
2021,07,06,22,46,3.20
2021,07,06,22,47,1.60
2021,07,06,22,49,1.60